Location: Newark
(45.8667°N, 9.7333°E)
Time: 02:31:56
(UTC+00:00)

Transit 4A - Pass Details

Date: 27 January 2020
Orbit: 872 x 973 km, 66.8° (Epoch: 19 February)

Event Time Altitude Azimuth Distance (km) Brightness Sun altitude
Rises 08:11:21 0° 278° (W) 3,516 10.4 11.0°
Reaches altitude 10° 08:15:11 10° 302° (WNW) 2,559 9.6 11.5°
Maximum altitude 08:18:20 14° 334° (NNW) 2,242 9.4 11.9°
Drops below altitude 10° 08:21:27 10° 7° (N) 2,540 9.9 12.3°
Sets 08:25:14 0° 31° (NNE) 3,473 10.8 12.8°
